Simultaneous Nadir Overpasses (SNOs) Predictions

Prediction of SNOs between LANDSAT-8 and METOP-B Satellite Orbit:

Table of predicted SNOs for the next 14.0 days since TLE Epoch: 5/16/2020
Index Date (LANDSAT-8) Time (LANDSAT-8) Lat,Lon (LANDSAT-8) SZA (LANDSAT-8 ) Date (METOP-B) Time (METOP-B) Lat,Lon (METOP-B) SZA (METOP-B ) Distance(km) Time Diff (sec)
1 05/17/2020 03:17:28 -81.13, -9.53 116.06 05/17/2020 03:16:49 -81.13, -9.42 116.06 1.88 39
2 05/17/2020 04:06:53 81.16, 158.51 64.00 05/17/2020 04:07:28 81.15, 158.56 64.02 0.95 35
3 05/19/2020 22:51:46 -81.13, 56.92 116.66 05/19/2020 22:51:11 -81.13, 56.94 116.67 0.42 35
4 05/19/2020 23:41:11 81.16,-135.06 63.40 05/19/2020 23:41:50 81.15,-135.13 63.40 1.31 39
5 05/22/2020 18:26:04 -81.13, 123.34 117.22 05/22/2020 18:25:32 -81.13, 123.29 117.24 0.93 32
6 05/22/2020 19:15:29 81.16, -68.66 62.83 05/22/2020 19:16:11 81.15, -68.83 62.83 2.97 42
7 05/25/2020 14:00:24 -81.13,-170.28 117.75 05/25/2020 13:59:54 -81.13,-170.37 117.77 1.65 30
8 05/25/2020 14:49:49 81.15, -2.29 62.31 05/25/2020 14:50:32 81.16, -2.15 62.34 2.34 43
9 05/28/2020 09:34:45 -81.13,-103.92 118.23 05/28/2020 09:34:16 -81.12,-104.04 118.25 2.00 29




NCC Satellite Simultaneous Nadir Overpasses (SNOs) Prediction Service
